This is the latest recevied weather packets stored in our database for station/object JF2ZGN-13. If no packets are shown the sender has not sent any weather packets the latest 10 day(s).
| Time | Temp. | Humidity | Pressure | Rain* | Wind** | Luminosity | Snow |
|---|---|---|---|---|---|---|---|
| 1777619535 | 11.67° C | 76% | 889.7 hPa | 120.4 mm | - | - | - |
| 1777618936 | 11.67° C | 77% | 889.9 hPa | 120.4 mm | - | - | - |
| 1777618334 | 12.22° C | 75% | 890.2 hPa | 120.4 mm | - | - | - |
| 1777617736 | 12.22° C | 71% | 890.3 hPa | 120.4 mm | - | - | - |
| 1777617133 | 12.22° C | 72% | 890.5 hPa | 120.4 mm | - | - | - |
| 1777616534 | 12.78° C | 68% | 890.9 hPa | 120.4 mm | - | - | - |
| 1777615933 | 12.22° C | 67% | 891.1 hPa | 120.4 mm | - | - | - |
| 1777615332 | 12.78° C | 66% | 891 hPa | 120.4 mm | - | - | - |
| 1777614732 | 12.78° C | 67% | 891.5 hPa | 120.4 mm | - | - | - |
| 1777614131 | 12.78° C | 61% | 891.4 hPa | 120.4 mm | - | - | - |
| 1777613531 | 12.78° C | 61% | 891.7 hPa | 120.4 mm | - | - | - |
| 1777612930 | 12.78° C | 50% | 892.2 hPa | 120.4 mm | - | - | - |
| 1777612330 | 13.33° C | 48% | 892.4 hPa | 120.4 mm | - | - | - |
| 1777611129 | 13.89° C | 55% | 892.1 hPa | 120.4 mm | - | - | - |
| 1777610528 | 13.89° C | 61% | 892.4 hPa | 120.4 mm | - | - | - |
| 1777609928 | 13.89° C | 67% | 893.2 hPa | 120.4 mm | - | - | - |
| 1777609327 | 13.89° C | 68% | 893.6 hPa | 120.14 mm | - | - | - |
| 1777608727 | 13.89° C | 69% | 893.7 hPa | 120.14 mm | - | - | - |
| 1777608127 | 14.44° C | 69% | 893.7 hPa | 119.89 mm | - | - | - |
| 1777607526 | 14.44° C | 66% | 893.8 hPa | 119.89 mm | - | - | - |
| 1777606926 | 14.44° C | 66% | 894.2 hPa | 119.89 mm | - | - | - |
| 1777606325 | 14.44° C | 66% | 894.2 hPa | 119.89 mm | - | - | - |
| 1777605725 | 14.44° C | 77% | 894.6 hPa | 119.63 mm | - | - | - |
| 1777605124 | 14.44° C | 77% | 894.7 hPa | 117.09 mm | - | - | - |
| 1777604524 | 14.44° C | 76% | 894.6 hPa | 116.59 mm | - | - | - |
* Rain since midnight (hover to see other rain measurements)
** Current wind speed in m/s (hover to see current wind gust speed)